Weather History for KADS - August, 2013

Change the Weather History Date:

Thursday, August 22, 2013

  Actual Average Record
Temperature  
Mean Temperature 88 °F -  
Max Temperature 98 °F 92 °F 104 °F (2010)
Min Temperature 80 °F 75 °F 68 °F (2012)
Cooling Degree Days 23    
Growing Degree Days 38 (Base 50)    
Moisture  
Dew Point 63 °F    
Average Humidity 46    
Maximum Humidity 65    
Minimum Humidity 30    
Precipitation  
Precipitation 0.00 in - - ()
Sea Level Pressure  
Sea Level Pressure 30.03 in    
Wind  
Wind Speed 5 mph (South)    
Max Wind Speed 10 mph    
Max Gust Speed 16 mph    
Visibility 11 miles    
Events      
Averages and records for this station are not official NWS values.
T = Trace of Precipitation, MM = Missing Value Source: NWS Daily Summary

Daily Weather History Graph

Daily Weather History Graph

Search for Another Location

Airport or City:

Trip Planner

Search our weather history database for the weather conditions in past years. The results will help you decide how hot, cold, wet, or windy it might be!

Date:

Astronomy

Aug. 22, 2013 Rise Set
Actual Time 6:55 AM CDT 8:04 PM CDT
Civil Twilight 6:29 AM CDT 8:29 PM CDT
Nautical Twilight 5:59 AM CDT 9:00 PM CDT
Astronomical Twilight 5:27 AM CDT 9:31 PM CDT
Moon 8:59 PM CDT (8/22) 8:36 AM CDT (8/22)
Length of Visible Light 14h 00m
Length of Day
13h 08m
Waning Gibbous, 96% of the Moon is Illuminated
Aug 22
Waning Gibbous
Aug 28
Last Quarter
Sep 5
New
Sep 12
First Quarter
Sep 19
Full

Hourly Weather History & Observations

Time (CDT) Temp. Heat Index Dew Point Humidity Pressure Visibility Wind Dir Wind Speed Gust Speed Precip Events Conditions
12:15 AM 84.4 °F 84.2 °F 59.9 °F 43% 30.05 in 10.0 mi SE 4.6 mph - N/A   Clear
12:35 AM 83.5 °F 83.6 °F 60.1 °F 45% 30.04 in 10.0 mi SSE 5.8 mph - N/A   Clear
12:55 AM 84.2 °F 84.0 °F 59.7 °F 43% 30.04 in 10.0 mi SSE 4.6 mph - N/A   Clear
1:15 AM 83.3 °F 83.4 °F 59.9 °F 45% 30.04 in 10.0 mi SSE 5.8 mph - N/A   Clear
1:35 AM 83.3 °F 83.4 °F 59.9 °F 45% 30.03 in 10.0 mi South 4.6 mph - N/A   Clear
1:55 AM 84.2 °F 84.2 °F 59.9 °F 44% 30.03 in 10.0 mi Calm Calm - N/A   Clear
2:15 AM 83.1 °F 83.3 °F 60.4 °F 46% 30.03 in 10.0 mi Calm Calm - N/A   Clear
2:35 AM 81.5 °F 82.2 °F 61.0 °F 50% 30.03 in 10.0 mi SSE 6.9 mph - N/A   Clear
2:55 AM 84.4 °F 84.6 °F 60.6 °F 45% 30.03 in 10.0 mi South 6.9 mph - N/A   Scattered Clouds
3:15 AM 83.7 °F 84.3 °F 62.1 °F 48% 30.03 in 10.0 mi South 5.8 mph - N/A   Scattered Clouds
3:35 AM 83.1 °F 84.0 °F 63.0 °F 50% 30.03 in 10.0 mi South 5.8 mph - N/A   Clear
3:55 AM 82.6 °F 83.9 °F 63.9 °F 53% 30.04 in 10.0 mi SSW 4.6 mph - N/A   Clear
4:15 AM 82.4 °F 84.1 °F 64.6 °F 55% 30.05 in 10.0 mi SSW 3.5 mph - N/A   Clear
4:35 AM 81.9 °F 83.7 °F 65.3 °F 57% 30.05 in 10.0 mi SSW 4.6 mph - N/A   Clear
4:55 AM 81.9 °F 83.7 °F 65.5 °F 57% 30.05 in 10.0 mi SSW 3.5 mph - N/A   Clear
5:15 AM 81.7 °F 83.8 °F 66.2 °F 59% 30.06 in 10.0 mi South 3.5 mph - N/A   Clear
5:35 AM 81.5 °F 83.7 °F 66.4 °F 60% 30.06 in 10.0 mi South 3.5 mph - N/A   Scattered Clouds
5:55 AM 81.5 °F 83.7 °F 66.6 °F 60% 30.06 in 10.0 mi South 3.5 mph - N/A   Scattered Clouds
6:47 AM 80.6 °F 83.2 °F 68.0 °F 65% 30.07 in 13.0 mi South 5.8 mph - N/A   Mostly Cloudy
7:49 AM 82.4 °F 85.4 °F 68.0 °F 62% 30.08 in 13.0 mi South 5.8 mph - N/A   Scattered Clouds
8:47 AM 84.2 °F 87.3 °F 68.0 °F 58% 30.10 in 13.0 mi South 6.9 mph - N/A   Scattered Clouds
9:47 AM 86.0 °F 89.4 °F 68.0 °F 55% 30.10 in 13.0 mi South 8.1 mph - N/A   Scattered Clouds
10:55 AM 87.8 °F 91.4 °F 68.0 °F 52% 30.10 in 13.0 mi South 5.8 mph - N/A   Scattered Clouds
11:47 AM 89.6 °F 92.2 °F 66.2 °F 46% 30.09 in 13.0 mi SSW 6.9 mph - N/A   Scattered Clouds
12:47 PM 91.4 °F 93.2 °F 64.4 °F 41% 30.07 in 13.0 mi SW 8.1 mph - N/A   Scattered Clouds
1:47 PM 93.2 °F 94.9 °F 64.4 °F 38% 30.05 in 13.0 mi South 5.8 mph - N/A   Mostly Cloudy
2:47 PM 95.0 °F 96.0 °F 62.6 °F 34% 30.03 in 13.0 mi SSW 6.9 mph - N/A   Mostly Cloudy
3:47 PM 96.8 °F 98.0 °F 62.6 °F 32% 30.00 in 13.0 mi SW 3.5 mph - N/A   Mostly Cloudy
4:47 PM 96.8 °F 97.1 °F 60.8 °F 30% 29.97 in 13.0 mi SSE 8.1 mph - N/A   Scattered Clouds
5:47 PM 96.8 °F 97.1 °F 60.8 °F 30% 29.95 in 13.0 mi WSW 5.8 mph - N/A   Partly Cloudy
6:51 PM 95.0 °F 95.2 °F 60.8 °F 32% 29.94 in 13.0 mi Calm Calm - N/A   Scattered Clouds
7:47 PM 95.0 °F 94.4 °F 59.0 °F 30% 29.94 in 13.0 mi ESE 5.8 mph - N/A   Scattered Clouds
8:47 PM 93.2 °F 93.3 °F 60.8 °F 34% 29.96 in 13.0 mi SE 6.9 mph - N/A   Partly Cloudy
9:47 PM 89.6 °F 91.1 °F 64.4 °F 43% 29.99 in 13.0 mi SE 8.1 mph 16.1 mph N/A   Partly Cloudy
10:15 PM 90.0 °F 90.3 °F 62.1 °F 39% 30.00 in 10.0 mi SE 9.2 mph - N/A   Clear
10:35 PM 89.6 °F 90.1 °F 62.6 °F 40% 30.00 in 10.0 mi SE 8.1 mph - N/A   Clear
10:55 PM 89.1 °F 89.6 °F 62.6 °F 41% 30.00 in 10.0 mi SSE 8.1 mph - N/A   Scattered Clouds
11:15 PM 88.7 °F 89.4 °F 62.8 °F 42% 30.01 in 10.0 mi SSE 10.4 mph - N/A   Scattered Clouds
11:35 PM 88.7 °F 89.8 °F 63.3 °F 43% 30.00 in 10.0 mi SSE 10.4 mph - N/A   Clear
11:55 PM 88.0 °F 89.0 °F 63.3 °F 44% 30.01 in 10.0 mi SSE 8.1 mph - N/A   Clear